BAW630 EGLL-LGAV

Flight info

Callsign BAW630
Flight time 2h 58m
Altitude 35000
Route DET1J DET L6 DVR UL9 KONAN DCT KOK DCT SISGA DCT KOMOB DCT BANUX/N0444F370 DCT BABEG DCT KUMOM DCT NIPEL DCT ABISO DCT NEMEK DCT ELTIB DCT PINDO DCT PIKOS UL607 XORKI XORKI1K
Aircraft A320/M-SDE3FGHIJ1RWXY/SB1

Departure

Time 2026-05-04 10:47
Airport London Heathrow Airport (EGLL)

Arrival

Time 2026-05-04 13:46
Airport Athens Eleftherios Venizelos International Airport (LGAV)
Time Latitude Longitude Altitude Speed Heading
2026-05-04 10:30 51.47271 -0.48585 89 ft 0 kts 269°
2026-05-04 10:37 51.47271 -0.48564 87 ft 4 kts 269°
2026-05-04 10:37 51.47271 -0.48525 86 ft 1 kts 269°
2026-05-04 10:37 51.47274 -0.48490 87 ft 4 kts 231°
2026-05-04 10:39 51.47311 -0.48473 86 ft 0 kts 179°
2026-05-04 10:40 51.47279 -0.48473 86 ft 9 kts 180°
2026-05-04 10:40 51.47190 -0.48472 87 ft 17 kts 179°
2026-05-04 10:40 51.47066 -0.48471 86 ft 19 kts 180°
2026-05-04 10:41 51.46929 -0.48470 86 ft 21 kts 179°
2026-05-04 10:41 51.46779 -0.48469 86 ft 22 kts 179°
2026-05-04 10:41 51.46659 -0.48418 89 ft 17 kts 115°
2026-05-04 10:41 51.46654 -0.48224 86 ft 18 kts 89°
2026-05-04 10:42 51.46654 -0.48009 86 ft 20 kts 90°
2026-05-04 10:42 51.46655 -0.47773 86 ft 22 kts 89°
2026-05-04 10:42 51.46656 -0.47521 86 ft 23 kts 90°
2026-05-04 10:42 51.46656 -0.47251 86 ft 25 kts 90°
2026-05-04 10:43 51.46657 -0.46968 88 ft 26 kts 90°
2026-05-04 10:44 51.46664 -0.44966 86 ft 29 kts 90°
2026-05-04 10:45 51.46665 -0.44641 86 ft 30 kts 90°
2026-05-04 10:45 51.46665 -0.44316 86 ft 25 kts 90°
2026-05-04 10:45 51.46653 -0.44078 90 ft 15 kts 131°
2026-05-04 10:45 51.46553 -0.44054 88 ft 16 kts 179°
2026-05-04 10:46 51.46493 -0.44106 86 ft 11 kts 261°
2026-05-04 10:46 51.46493 -0.44149 86 ft 9 kts 270°
2026-05-04 10:46 51.46491 -0.44658 89 ft 80 kts 269°
2026-05-04 10:46 51.46488 -0.45859 86 ft 133 kts 270°
2026-05-04 10:47 51.46484 -0.47582 107 ft 173 kts 272°
2026-05-04 10:47 51.46475 -0.49502 741 ft 169 kts 270°
2026-05-04 10:47 51.46442 -0.51393 1305 ft 173 kts 263°
2026-05-04 10:47 51.45929 -0.53265 1796 ft 198 kts 227°
2026-05-04 10:49 51.36414 -0.44162 7948 ft 276 kts 136°
2026-05-04 10:49 51.35034 -0.41983 8942 ft 281 kts 137°
2026-05-04 10:50 51.33621 -0.39774 9938 ft 287 kts 137°
2026-05-04 10:51 51.31684 -0.14427 15114 ft 372 kts 90°
2026-05-04 10:52 51.31698 -0.10260 15989 ft 377 kts 92°
2026-05-04 10:52 51.31646 -0.06044 16868 ft 382 kts 93°
2026-05-04 10:52 51.31557 -0.01785 17736 ft 386 kts 94°
2026-05-04 10:54 51.30974 0.29468 22985 ft 420 kts 93°
2026-05-04 10:54 51.30893 0.34228 23653 ft 425 kts 94°
2026-05-04 10:56 51.28944 0.67779 26660 ft 440 kts 110°
2026-05-04 10:56 51.28065 0.72543 27005 ft 442 kts 110°
2026-05-04 10:56 51.27195 0.77258 27339 ft 444 kts 110°
2026-05-04 10:57 51.26332 0.81944 27672 ft 446 kts 110°
2026-05-04 10:57 51.25444 0.86767 28010 ft 448 kts 110°
2026-05-04 10:57 51.24563 0.91543 28356 ft 449 kts 110°
2026-05-04 10:57 51.23683 0.96307 28806 ft 447 kts 110°
2026-05-04 10:58 51.22803 1.01066 29234 ft 447 kts 110°
2026-05-04 10:58 51.21922 1.05809 29686 ft 446 kts 110°
2026-05-04 10:58 51.21040 1.10538 30137 ft 445 kts 111°
2026-05-04 10:58 51.20165 1.15212 30538 ft 443 kts 111°
2026-05-04 10:59 51.19282 1.19906 30948 ft 442 kts 111°
2026-05-04 10:59 51.18398 1.24590 31357 ft 440 kts 111°
2026-05-04 10:59 51.17506 1.29313 31768 ft 439 kts 111°
2026-05-04 10:59 51.16657 1.33920 32174 ft 439 kts 108°
2026-05-04 11:00 51.16125 1.38735 32579 ft 443 kts 99°
2026-05-04 11:01 51.14465 1.72932 34895 ft 441 kts 99°
2026-05-04 11:02 51.14215 1.77804 35005 ft 443 kts 99°
2026-05-04 11:05 51.10234 2.51915 35007 ft 459 kts 100°
2026-05-04 11:06 51.09545 2.62016 35006 ft 455 kts 107°
2026-05-04 11:06 51.07455 2.71314 35005 ft 443 kts 123°
2026-05-04 11:10 50.86953 3.32502 34991 ft 464 kts 123°
2026-05-04 11:12 50.74656 3.68553 35006 ft 465 kts 124°
2026-05-04 11:12 50.71566 3.77533 34986 ft 466 kts 124°
2026-05-04 11:13 50.68459 3.86510 34992 ft 466 kts 124°
2026-05-04 11:13 50.65344 3.95496 34998 ft 467 kts 124°
2026-05-04 11:14 50.64817 3.97012 34999 ft 467 kts 124°
2026-05-04 11:16 50.49588 4.40228 35046 ft 466 kts 125°
2026-05-04 11:16 50.46403 4.49177 35048 ft 466 kts 124°
2026-05-04 11:17 50.43241 4.58059 35047 ft 466 kts 125°
2026-05-04 11:19 50.30460 4.93482 35015 ft 468 kts 125°
2026-05-04 11:19 50.27245 5.02331 35022 ft 468 kts 125°
2026-05-04 11:20 50.24029 5.11150 35013 ft 467 kts 126°
2026-05-04 11:20 50.20770 5.20020 35022 ft 467 kts 126°
2026-05-04 11:22 50.08841 5.56181 35001 ft 472 kts 120°
2026-05-04 11:23 50.06092 5.65466 35009 ft 472 kts 120°
2026-05-04 11:25 49.96391 5.97853 35014 ft 472 kts 121°
2026-05-04 11:25 49.93604 6.07096 35016 ft 472 kts 121°
2026-05-04 11:27 49.80971 6.48523 35010 ft 473 kts 121°
2026-05-04 11:28 49.78133 6.57715 34998 ft 473 kts 121°
2026-05-04 11:28 49.75289 6.66886 35007 ft 473 kts 121°
2026-05-04 11:29 49.72442 6.76056 35008 ft 473 kts 121°
2026-05-04 11:29 49.69589 6.85217 34986 ft 474 kts 121°
2026-05-04 11:33 49.49327 7.49286 35019 ft 477 kts 121°
2026-05-04 11:33 49.46396 7.58432 35020 ft 477 kts 121°
2026-05-04 11:34 49.43454 7.67577 35009 ft 477 kts 121°
2026-05-04 11:34 49.40498 7.76713 35011 ft 477 kts 121°
2026-05-04 11:35 49.38037 7.84295 35021 ft 477 kts 121°
2026-05-04 11:35 49.35055 7.93465 35028 ft 477 kts 121°
2026-05-04 11:36 49.32100 8.02514 35038 ft 477 kts 121°
2026-05-04 11:36 49.29096 8.11678 35022 ft 478 kts 121°
2026-05-04 11:37 49.26105 8.20769 35033 ft 478 kts 121°
2026-05-04 11:37 49.23103 8.29849 35037 ft 478 kts 121°
2026-05-04 11:38 49.20102 8.38922 35029 ft 478 kts 121°
2026-05-04 11:38 49.17088 8.47986 35040 ft 478 kts 121°
2026-05-04 11:39 49.14059 8.57050 35046 ft 478 kts 121°
2026-05-04 11:40 49.03878 8.82812 36195 ft 470 kts 128°
2026-05-04 11:41 49.02080 8.86971 36340 ft 470 kts 127°
2026-05-04 11:41 49.00281 8.91131 36492 ft 470 kts 127°
2026-05-04 11:41 48.98480 8.95291 36643 ft 470 kts 127°
2026-05-04 11:41 48.96682 8.99445 36799 ft 470 kts 127°
2026-05-04 11:42 48.94885 9.03594 36955 ft 469 kts 128°
2026-05-04 11:42 48.91274 9.11881 37006 ft 470 kts 128°
2026-05-04 11:43 48.87657 9.20148 37006 ft 469 kts 128°
2026-05-04 11:43 48.84033 9.28417 37007 ft 471 kts 128°
2026-05-04 11:44 48.80403 9.36682 37006 ft 471 kts 128°
2026-05-04 11:44 48.76770 9.44946 37016 ft 471 kts 128°
2026-05-04 11:45 48.73124 9.53194 37021 ft 471 kts 128°
2026-05-04 11:45 48.69461 9.61433 37004 ft 472 kts 127°
2026-05-04 11:46 48.65818 9.69705 37013 ft 473 kts 126°
2026-05-04 11:46 48.62398 9.78330 37015 ft 474 kts 123°
2026-05-04 11:47 48.59143 9.86953 37023 ft 474 kts 123°
2026-05-04 11:47 48.55784 9.95619 37028 ft 474 kts 124°
2026-05-04 11:48 48.52415 10.04084 37019 ft 473 kts 124°
2026-05-04 11:48 48.49009 10.12589 37024 ft 473 kts 124°
2026-05-04 11:49 48.45618 10.21099 37029 ft 474 kts 124°
2026-05-04 11:49 48.42219 10.29612 37031 ft 474 kts 124°
2026-05-04 11:50 48.38813 10.38106 37020 ft 473 kts 124°
2026-05-04 11:50 48.35405 10.46581 37024 ft 473 kts 124°
2026-05-04 11:51 48.31982 10.55042 37023 ft 473 kts 124°
2026-05-04 11:51 48.28557 10.63499 37023 ft 474 kts 124°
2026-05-04 11:52 48.25135 10.71953 37020 ft 474 kts 124°
2026-05-04 11:52 48.21697 10.80385 37013 ft 473 kts 124°
2026-05-04 11:53 48.18241 10.88815 37018 ft 473 kts 124°
2026-05-04 11:53 48.14784 10.97224 37019 ft 473 kts 124°
2026-05-04 11:55 48.00955 11.30696 37028 ft 473 kts 124°
2026-05-04 11:56 47.97476 11.39032 37026 ft 473 kts 125°
2026-05-04 11:56 47.93989 11.47360 37015 ft 473 kts 125°
2026-05-04 11:57 47.90499 11.55693 37007 ft 472 kts 124°
2026-05-04 11:57 47.87032 11.63947 37001 ft 472 kts 124°
2026-05-04 11:58 47.83537 11.72248 36981 ft 471 kts 124°
2026-05-04 11:58 47.80046 11.80512 36991 ft 471 kts 125°
2026-05-04 11:59 47.76551 11.88744 36978 ft 471 kts 125°
2026-05-04 11:59 47.73048 11.96965 36984 ft 470 kts 125°
2026-05-04 12:00 47.69544 12.05174 36988 ft 471 kts 125°
2026-05-04 12:00 47.66030 12.13380 36996 ft 471 kts 125°
2026-05-04 12:01 47.62508 12.21578 37003 ft 471 kts 125°
2026-05-04 12:02 47.48796 12.48353 37000 ft 465 kts 135°
2026-05-04 12:03 47.44389 12.55377 37017 ft 466 kts 135°
2026-05-04 12:03 47.39980 12.62400 37016 ft 466 kts 135°
2026-05-04 12:04 47.35562 12.69418 37018 ft 466 kts 135°
2026-05-04 12:04 47.31139 12.76421 37034 ft 466 kts 135°
2026-05-04 12:05 47.26715 12.83400 37029 ft 466 kts 136°
2026-05-04 12:05 47.22307 12.90334 37046 ft 466 kts 136°
2026-05-04 12:06 47.17879 12.97298 37045 ft 466 kts 135°
2026-05-04 12:06 47.13442 13.04249 37062 ft 466 kts 135°
2026-05-04 12:07 47.09004 13.11181 37066 ft 466 kts 135°
2026-05-04 12:07 47.04556 13.18101 37067 ft 467 kts 135°
2026-05-04 12:08 47.00099 13.25027 37063 ft 467 kts 135°
2026-05-04 12:08 46.96366 13.30820 37070 ft 467 kts 135°
2026-05-04 12:09 46.91919 13.37697 37088 ft 468 kts 135°
2026-05-04 12:09 46.87443 13.44613 37089 ft 468 kts 135°
2026-05-04 12:10 46.82963 13.51500 37090 ft 468 kts 135°
2026-05-04 12:10 46.78469 13.58391 37073 ft 468 kts 136°
2026-05-04 12:11 46.73967 13.65292 37059 ft 469 kts 136°
2026-05-04 12:11 46.69457 13.72176 37076 ft 470 kts 135°
2026-05-04 12:12 46.64930 13.79058 37081 ft 470 kts 135°
2026-05-04 12:12 46.60404 13.85925 37094 ft 470 kts 136°
2026-05-04 12:14 46.42067 14.13125 37078 ft 472 kts 139°
2026-05-04 12:15 46.37317 14.19702 37080 ft 473 kts 138°
2026-05-04 12:15 46.32569 14.26327 37091 ft 474 kts 137°
2026-05-04 12:16 46.27833 14.32975 37109 ft 474 kts 137°
2026-05-04 12:16 46.23097 14.39615 37104 ft 474 kts 138°
2026-05-04 12:17 46.18353 14.46247 37111 ft 475 kts 138°
2026-05-04 12:17 46.13593 14.52875 37107 ft 476 kts 137°
2026-05-04 12:18 46.08820 14.59507 37106 ft 476 kts 137°
2026-05-04 12:18 46.04076 14.66084 37103 ft 476 kts 137°
2026-05-04 12:19 45.99290 14.72692 37094 ft 476 kts 138°
2026-05-04 12:19 45.94510 14.79282 37092 ft 477 kts 137°
2026-05-04 12:20 45.89719 14.85882 37089 ft 477 kts 137°
2026-05-04 12:20 45.84922 14.92459 37092 ft 477 kts 137°
2026-05-04 12:21 45.80115 14.99031 37093 ft 477 kts 137°
2026-05-04 12:21 45.75311 15.05594 37092 ft 477 kts 137°
2026-05-04 12:22 45.70501 15.12146 37084 ft 477 kts 137°
2026-05-04 12:22 45.65677 15.18709 37075 ft 477 kts 137°
2026-05-04 12:23 45.60887 15.25199 37083 ft 478 kts 137°
2026-05-04 12:23 45.56030 15.31700 37090 ft 478 kts 139°
2026-05-04 12:24 45.51023 15.37922 37087 ft 478 kts 141°
2026-05-04 12:24 45.45927 15.44014 37088 ft 478 kts 141°
2026-05-04 12:25 45.40841 15.50142 37091 ft 478 kts 140°
2026-05-04 12:25 45.35791 15.56320 37090 ft 478 kts 140°
2026-05-04 12:26 45.30746 15.62492 37100 ft 478 kts 140°
2026-05-04 12:26 45.25692 15.68641 37077 ft 479 kts 140°
2026-05-04 12:27 45.20612 15.74792 37076 ft 480 kts 140°
2026-05-04 12:27 45.15525 15.80922 37076 ft 480 kts 140°
2026-05-04 12:28 45.10462 15.87012 37083 ft 480 kts 140°
2026-05-04 12:28 45.05362 15.93152 37098 ft 481 kts 140°
2026-05-04 12:29 45.00249 15.99294 37062 ft 482 kts 140°
2026-05-04 12:29 44.95125 16.05421 37067 ft 482 kts 140°
2026-05-04 12:30 44.89991 16.11558 37084 ft 483 kts 140°
2026-05-04 12:30 44.84853 16.17681 37101 ft 483 kts 140°
2026-05-04 12:31 44.79738 16.23752 37068 ft 484 kts 140°
2026-05-04 12:31 44.74550 16.29887 37078 ft 484 kts 140°
2026-05-04 12:32 44.66807 16.39038 37095 ft 485 kts 140°
2026-05-04 12:33 44.61663 16.45092 37118 ft 485 kts 140°
2026-05-04 12:33 44.56472 16.51186 37112 ft 485 kts 140°
2026-05-04 12:34 44.51287 16.57273 37110 ft 486 kts 140°
2026-05-04 12:34 44.46094 16.63343 37112 ft 486 kts 140°
2026-05-04 12:35 44.40892 16.69397 37120 ft 487 kts 140°
2026-05-04 12:35 44.35684 16.75460 37129 ft 487 kts 140°
2026-05-04 12:36 44.30471 16.81515 37112 ft 487 kts 140°
2026-05-04 12:36 44.25297 16.87547 37119 ft 488 kts 140°
2026-05-04 12:37 44.20071 16.93681 37114 ft 488 kts 140°
2026-05-04 12:37 44.14872 16.99779 37133 ft 488 kts 140°
2026-05-04 12:38 44.09702 17.05812 37125 ft 488 kts 140°
2026-05-04 12:38 44.04481 17.11872 37114 ft 489 kts 140°
2026-05-04 12:39 43.99259 17.17932 37113 ft 489 kts 140°
2026-05-04 12:39 43.94021 17.24008 37128 ft 489 kts 140°
2026-05-04 12:40 43.88783 17.30050 37130 ft 489 kts 140°
2026-05-04 12:40 43.83537 17.36079 37117 ft 490 kts 140°
2026-05-04 12:41 43.78285 17.42105 37122 ft 491 kts 140°
2026-05-04 12:41 43.73057 17.48096 37138 ft 491 kts 140°
2026-05-04 12:42 43.67796 17.54115 37136 ft 491 kts 140°
2026-05-04 12:42 43.62527 17.60134 37138 ft 491 kts 140°
2026-05-04 12:43 43.57254 17.66134 37125 ft 492 kts 140°
2026-05-04 12:43 43.51964 17.72147 37128 ft 492 kts 140°
2026-05-04 12:44 43.46674 17.78147 37148 ft 492 kts 140°
2026-05-04 12:44 43.41410 17.84099 37137 ft 492 kts 140°
2026-05-04 12:45 43.36117 17.90067 37136 ft 492 kts 140°
2026-05-04 12:45 43.31673 17.95062 37133 ft 492 kts 140°
2026-05-04 12:46 43.26376 18.01013 37135 ft 492 kts 140°
2026-05-04 12:46 43.21075 18.06958 37138 ft 492 kts 140°
2026-05-04 12:47 43.15767 18.12885 37135 ft 492 kts 140°
2026-05-04 12:47 43.10477 18.18780 37131 ft 493 kts 140°
2026-05-04 12:48 43.05146 18.24707 37140 ft 494 kts 140°
2026-05-04 12:48 42.99770 18.30672 37145 ft 494 kts 140°
2026-05-04 12:49 42.94421 18.36596 37148 ft 494 kts 140°
2026-05-04 12:49 42.89110 18.42469 37160 ft 495 kts 140°
2026-05-04 12:50 42.83712 18.48416 37154 ft 496 kts 140°
2026-05-04 12:50 42.78347 18.54314 37154 ft 496 kts 140°
2026-05-04 12:51 42.72971 18.60204 37157 ft 496 kts 140°
2026-05-04 12:51 42.67622 18.66053 37159 ft 496 kts 140°
2026-05-04 12:52 42.62233 18.71942 37159 ft 497 kts 140°
2026-05-04 12:52 42.56848 18.77831 37166 ft 497 kts 140°
2026-05-04 12:53 42.51451 18.83700 37159 ft 497 kts 140°
2026-05-04 12:53 42.46032 18.89559 37150 ft 497 kts 140°
2026-05-04 12:54 42.40628 18.95405 37135 ft 498 kts 140°
2026-05-04 12:54 42.35219 19.01254 37134 ft 498 kts 140°
2026-05-04 12:55 42.29793 19.07104 37133 ft 499 kts 140°
2026-05-04 12:55 42.24363 19.12937 37157 ft 499 kts 140°
2026-05-04 12:56 42.18916 19.18766 37136 ft 499 kts 140°
2026-05-04 12:56 42.13464 19.24607 37136 ft 500 kts 140°
2026-05-04 12:57 42.08054 19.30395 37139 ft 501 kts 140°
2026-05-04 12:57 42.02589 19.36219 37124 ft 501 kts 140°
2026-05-04 12:58 41.97106 19.42047 37129 ft 501 kts 140°
2026-05-04 12:58 41.91626 19.47848 37142 ft 502 kts 140°
2026-05-04 12:59 41.86136 19.53656 37136 ft 503 kts 140°
2026-05-04 12:59 41.80634 19.59473 37136 ft 503 kts 140°
2026-05-04 13:00 41.75124 19.65268 37137 ft 503 kts 140°
2026-05-04 13:00 41.69650 19.71010 37131 ft 504 kts 140°
2026-05-04 13:01 41.64132 19.76797 37132 ft 504 kts 141°
2026-05-04 13:01 41.58608 19.82591 37146 ft 504 kts 140°
2026-05-04 13:02 41.53079 19.88364 37140 ft 504 kts 140°
2026-05-04 13:02 41.47547 19.94116 37156 ft 504 kts 140°
2026-05-04 13:03 41.42019 19.99858 37138 ft 504 kts 140°
2026-05-04 13:03 41.36474 20.05599 37135 ft 505 kts 141°
2026-05-04 13:04 41.30922 20.11341 37129 ft 505 kts 141°
2026-05-04 13:04 41.25370 20.17077 37147 ft 505 kts 140°
2026-05-04 13:05 41.19824 20.22807 37133 ft 505 kts 141°
2026-05-04 13:05 41.14257 20.28536 37114 ft 505 kts 140°
2026-05-04 13:06 41.08721 20.34206 37123 ft 506 kts 141°
2026-05-04 13:06 41.03130 20.39913 37123 ft 506 kts 141°
2026-05-04 13:07 40.97555 20.45608 37129 ft 506 kts 140°
2026-05-04 13:07 40.91981 20.51295 37131 ft 505 kts 140°
2026-05-04 13:08 40.86397 20.56968 37131 ft 506 kts 140°
2026-05-04 13:08 40.80810 20.62633 37127 ft 506 kts 140°
2026-05-04 13:09 40.75220 20.68297 37119 ft 506 kts 140°
2026-05-04 13:09 40.69617 20.73953 37115 ft 507 kts 141°
2026-05-04 13:10 40.64038 20.79559 37130 ft 507 kts 141°
2026-05-04 13:10 40.58429 20.85199 37125 ft 507 kts 141°
2026-05-04 13:11 40.52820 20.90841 37123 ft 507 kts 141°
2026-05-04 13:11 40.47213 20.96484 37123 ft 507 kts 140°
2026-05-04 13:12 40.41792 21.02507 37114 ft 507 kts 136°
2026-05-04 13:12 40.36585 21.08743 37118 ft 507 kts 135°
2026-05-04 13:13 40.31343 21.14956 37149 ft 508 kts 136°
2026-05-04 13:13 40.26026 21.21056 37140 ft 508 kts 137°
2026-05-04 13:14 40.20682 21.27111 37133 ft 508 kts 137°
2026-05-04 13:14 40.15345 21.33176 37124 ft 508 kts 137°
2026-05-04 13:15 40.10021 21.39252 37123 ft 508 kts 137°
2026-05-04 13:15 40.04690 21.45327 37129 ft 509 kts 137°
2026-05-04 13:16 39.99342 21.51391 37128 ft 509 kts 137°
2026-05-04 13:16 39.93993 21.57444 37131 ft 509 kts 137°
2026-05-04 13:17 39.88672 21.63466 37113 ft 506 kts 137°
2026-05-04 13:17 39.83408 21.69399 37109 ft 494 kts 137°
2026-05-04 13:18 39.78229 21.75234 37108 ft 492 kts 137°
2026-05-04 13:18 39.73051 21.81057 37124 ft 492 kts 137°
2026-05-04 13:19 39.67855 21.86869 37114 ft 493 kts 137°
2026-05-04 13:19 39.62691 21.92635 37106 ft 494 kts 137°
2026-05-04 13:20 39.57482 21.98456 37104 ft 495 kts 137°
2026-05-04 13:20 39.52260 22.04283 37108 ft 496 kts 137°
2026-05-04 13:21 39.47024 22.10109 37117 ft 496 kts 137°
2026-05-04 13:21 39.41782 22.15918 37135 ft 496 kts 137°
2026-05-04 13:22 39.36542 22.21711 37132 ft 495 kts 138°
2026-05-04 13:22 39.31303 22.27491 37135 ft 495 kts 138°
2026-05-04 13:23 39.26066 22.33267 37136 ft 495 kts 137°
2026-05-04 13:23 39.20823 22.39042 37138 ft 495 kts 138°
2026-05-04 13:24 39.15582 22.44796 37137 ft 495 kts 138°
2026-05-04 13:24 39.11216 22.49574 37154 ft 495 kts 138°
2026-05-04 13:25 39.03323 22.58200 37137 ft 497 kts 138°
2026-05-04 13:25 38.98050 22.63947 36923 ft 497 kts 138°
2026-05-04 13:26 38.95413 22.66813 36655 ft 498 kts 138°
2026-05-04 13:26 38.92761 22.69694 35919 ft 501 kts 138°
2026-05-04 13:26 38.90089 22.72598 35092 ft 506 kts 138°
2026-05-04 13:26 38.87381 22.75544 34167 ft 513 kts 137°
2026-05-04 13:27 38.84646 22.78515 33484 ft 513 kts 138°
2026-05-04 13:27 38.81932 22.81454 33200 ft 511 kts 138°
2026-05-04 13:27 38.79214 22.84393 33089 ft 511 kts 138°
2026-05-04 13:27 38.76500 22.87322 32979 ft 510 kts 138°
2026-05-04 13:28 38.73771 22.90268 31889 ft 517 kts 138°
2026-05-04 13:28 38.71029 22.93227 31356 ft 512 kts 138°
2026-05-04 13:28 38.68315 22.96148 30743 ft 509 kts 138°
2026-05-04 13:28 38.65619 22.99043 30286 ft 503 kts 138°
2026-05-04 13:29 38.62958 23.01904 30054 ft 497 kts 138°
2026-05-04 13:29 38.60318 23.04745 29353 ft 497 kts 138°
2026-05-04 13:29 38.57670 23.07590 28512 ft 497 kts 138°
2026-05-04 13:29 38.55022 23.10433 27711 ft 496 kts 138°
2026-05-04 13:30 38.52386 23.13259 26963 ft 491 kts 138°
2026-05-04 13:30 38.49814 23.16013 26197 ft 475 kts 138°
2026-05-04 13:30 38.47319 23.18677 25468 ft 460 kts 138°
2026-05-04 13:30 38.44893 23.21262 24746 ft 448 kts 138°
2026-05-04 13:31 38.42534 23.23772 24052 ft 437 kts 138°
2026-05-04 13:31 38.40222 23.26233 23293 ft 427 kts 138°
2026-05-04 13:31 38.37965 23.28635 22475 ft 419 kts 138°
2026-05-04 13:31 38.35635 23.30817 21685 ft 413 kts 151°
2026-05-04 13:32 38.32975 23.32092 20919 ft 405 kts 164°
2026-05-04 13:32 38.30274 23.32997 20172 ft 398 kts 165°
2026-05-04 13:32 38.27613 23.33856 19434 ft 391 kts 165°
2026-05-04 13:32 38.25001 23.34689 18721 ft 385 kts 165°
2026-05-04 13:33 38.22395 23.35509 17950 ft 387 kts 165°
2026-05-04 13:33 38.19774 23.36328 17140 ft 388 kts 165°
2026-05-04 13:33 38.17182 23.37130 16353 ft 378 kts 165°
2026-05-04 13:33 38.14651 23.37911 15587 ft 370 kts 165°
2026-05-04 13:34 38.12172 23.38675 14838 ft 365 kts 165°
2026-05-04 13:34 38.09712 23.39428 14112 ft 362 kts 165°
2026-05-04 13:34 38.07268 23.40171 13324 ft 359 kts 165°
2026-05-04 13:34 38.04853 23.40918 12531 ft 356 kts 165°
2026-05-04 13:35 38.02471 23.41680 11763 ft 349 kts 165°
2026-05-04 13:35 37.97874 23.43174 10497 ft 333 kts 165°
2026-05-04 13:35 37.95656 23.43911 9891 ft 326 kts 165°
2026-05-04 13:36 37.93481 23.44645 9225 ft 321 kts 165°
2026-05-04 13:36 37.91361 23.45435 8580 ft 315 kts 157°
2026-05-04 13:36 37.89482 23.46799 8133 ft 309 kts 146°
2026-05-04 13:36 37.87709 23.48311 7794 ft 304 kts 145°
2026-05-04 13:37 37.85999 23.49796 7463 ft 294 kts 145°
2026-05-04 13:37 37.84321 23.51262 7140 ft 292 kts 145°
2026-05-04 13:37 37.82657 23.52724 6820 ft 291 kts 145°
2026-05-04 13:37 37.81558 23.53695 6592 ft 291 kts 146°
2026-05-04 13:38 37.79392 23.55646 6158 ft 279 kts 145°
2026-05-04 13:38 37.77954 23.57193 5825 ft 266 kts 130°
2026-05-04 13:38 37.76821 23.58997 5492 ft 258 kts 126°
2026-05-04 13:38 37.75748 23.60813 5119 ft 256 kts 125°
2026-05-04 13:39 37.74693 23.62598 4811 ft 253 kts 125°
2026-05-04 13:39 37.73905 23.64545 4495 ft 247 kts 98°
2026-05-04 13:39 37.73907 23.66673 4187 ft 240 kts 78°
2026-05-04 13:39 37.74192 23.68740 3884 ft 238 kts 76°
2026-05-04 13:40 37.74517 23.70790 3536 ft 239 kts 75°
2026-05-04 13:40 37.74855 23.72860 3163 ft 241 kts 75°
2026-05-04 13:40 37.75198 23.74906 3003 ft 232 kts 76°
2026-05-04 13:40 37.75527 23.76857 3011 ft 225 kts 73°
2026-05-04 13:41 37.76152 23.78685 3013 ft 235 kts 50°
2026-05-04 13:41 37.77281 23.80045 3007 ft 216 kts 33°
2026-05-04 13:41 37.78445 23.81142 3005 ft 203 kts 33°
2026-05-04 13:42 37.80628 23.83202 3004 ft 191 kts 33°
2026-05-04 13:42 37.81696 23.84212 2940 ft 191 kts 33°
2026-05-04 13:42 37.82740 23.85201 2756 ft 187 kts 33°
2026-05-04 13:42 37.83762 23.86171 2488 ft 179 kts 34°
2026-05-04 13:43 37.84728 23.87086 2258 ft 169 kts 33°
2026-05-04 13:43 37.85641 23.87952 2045 ft 160 kts 33°
2026-05-04 13:43 37.86522 23.88788 1853 ft 150 kts 35°
2026-05-04 13:43 37.87326 23.89551 1649 ft 140 kts 33°
2026-05-04 13:44 37.88105 23.90289 1464 ft 140 kts 35°
2026-05-04 13:44 37.88884 23.91027 1253 ft 139 kts 32°
2026-05-04 13:44 37.89660 23.91763 1059 ft 138 kts 34°
2026-05-04 13:44 37.90424 23.92491 855 ft 137 kts 36°
2026-05-04 13:45 37.91196 23.93226 697 ft 140 kts 36°
2026-05-04 13:45 37.91969 23.93961 492 ft 140 kts 39°
2026-05-04 13:45 37.92739 23.94693 316 ft 137 kts 38°
2026-05-04 13:45 37.93413 23.95337 292 ft 94 kts 37°
2026-05-04 13:46 37.93721 23.95626 282 ft 35 kts 35°
2026-05-04 13:46 37.93919 23.95717 282 ft 16 kts
2026-05-04 13:46 37.93993 23.95729 292 ft 3 kts
2026-05-04 13:46 37.94004 23.95730 294 ft 0 kts
2026-05-04 13:47 37.94032 23.95716 293 ft 5 kts 327°
2026-05-04 13:47 37.94045 23.95700 299 ft 1 kts 310°
2026-05-04 13:47 37.94036 23.95658 297 ft 9 kts 237°
2026-05-04 13:47 37.93968 23.95587 296 ft 14 kts 219°
2026-05-04 13:48 37.93882 23.95504 298 ft 17 kts 217°
2026-05-04 13:48 37.93785 23.95411 300 ft 19 kts 216°
2026-05-04 13:48 37.93673 23.95304 300 ft 20 kts 216°
2026-05-04 13:48 37.93559 23.95195 298 ft 17 kts 217°
2026-05-04 13:49 37.93457 23.95098 299 ft 19 kts 217°
2026-05-04 13:49 37.93387 23.95006 300 ft 12 kts 263°
2026-05-04 13:49 37.93422 23.94910 301 ft 13 kts 302°
2026-05-04 13:49 37.93475 23.94809 303 ft 15 kts 307°
2026-05-04 13:50 37.93510 23.94750 301 ft 1 kts 307°
2026-05-04 13:50 37.93516 23.94741 301 ft 0 kts 307°